TimeCDT,TemperatureF,Dew PointF,Humidity,Sea Level PressureIn,VisibilityMPH,Wind Direction,Wind SpeedMPH,Gust SpeedMPH,PrecipitationIn,Events,Conditions,WindDirDegrees,DateUTC
12:53 AM,37.9,35.1,89,29.80,5.0,South,10.4,-,0.02,Rain,Light Rain,170,2013-03-10 06:53:00
1:53 AM,37.9,36.0,93,29.79,4.0,South,4.6,-,0.05,Rain,Light Rain,180,2013-03-10 07:53:00
3:53 AM,37.0,36.0,96,29.76,2.5,Calm,Calm,-,0.04,Rain,Light Rain,0,2013-03-10 08:53:00
4:05 AM,37.4,37.4,100,29.73,3.0,SSE,3.5,-,0.01,Rain,Light Rain,160,2013-03-10 09:05:00
4:53 AM,37.9,37.0,97,29.75,2.5,South,8.1,-,0.06,Rain,Rain,180,2013-03-10 09:53:00
5:12 AM,39.2,37.4,93,29.73,2.5,Calm,Calm,-,0.06,Rain,Light Rain,0,2013-03-10 10:12:00
5:20 AM,39.2,37.4,93,29.73,2.5,South,4.6,-,0.08,Rain,Rain,180,2013-03-10 10:20:00
5:39 AM,37.4,35.6,93,29.73,1.5,South,4.6,-,0.12,Rain,Rain,180,2013-03-10 10:39:00
5:53 AM,39.0,37.9,96,29.75,1.8,South,5.8,-,0.15,Rain,Rain,170,2013-03-10 10:53:00
6:12 AM,39.2,39.2,100,29.74,1.5,Calm,Calm,-,0.06,Rain,Rain,0,2013-03-10 11:12:00
6:53 AM,37.4,35.6,93,29.69,0.8,ESE,15.0,-,N/A,Rain,Light Rain,120,2013-03-10 11:53:00
7:09 AM,37.4,37.4,100,29.67,2.0,SE,13.8,-,0.01,Rain,Light Rain,140,2013-03-10 12:09:00
7:53 AM,39.0,39.0,100,29.78,2.0,Calm,Calm,-,0.01,Rain,Light Rain,0,2013-03-10 12:53:00
8:16 AM,37.4,37.4,100,29.76,1.5,South,5.8,-,0.00,Rain,Light Rain,170,2013-03-10 13:16:00
8:53 AM,39.0,37.9,96,29.81,0.8,Calm,Calm,-,0.00,,Overcast,0,2013-03-10 13:53:00
9:07 AM,39.2,39.2,100,29.78,0.2,Calm,Calm,-,0.00,Fog-Rain,Light Rain,0,2013-03-10 14:07:00
9:53 AM,37.0,36.0,96,29.79,0.1,NE,3.5,-,0.02,Fog,Light Drizzle,50,2013-03-10 14:53:00
10:53 AM,37.9,37.9,100,29.81,0.1,Calm,Calm,-,0.00,Fog,Fog,0,2013-03-10 15:53:00
11:25 AM,39.2,37.4,93,29.80,0.1,Calm,Calm,-,0.01,Fog,Fog,0,2013-03-10 16:25:00
11:49 AM,37.4,37.4,100,29.80,0.1,Calm,Calm,-,0.01,Fog,Light Drizzle,0,2013-03-10 16:49:00
11:53 AM,37.9,37.9,100,29.82,0.1,NNE,3.5,-,0.01,Fog,Light Drizzle,30,2013-03-10 16:53:00
12:53 PM,39.0,37.9,96,29.81,0.5,North,4.6,-,0.00,Fog,Fog,350,2013-03-10 17:53:00
1:35 PM,37.4,37.4,100,29.79,0.2,North,8.1,-,0.00,Fog-Rain,Light Rain,10,2013-03-10 18:35:00
1:53 PM,37.0,36.0,96,29.80,0.2,North,11.5,-,0.00,Fog-Rain,Light Rain,10,2013-03-10 18:53:00
2:08 PM,37.4,35.6,93,29.76,0.8,North,13.8,-,0.01,Rain,Light Rain,10,2013-03-10 19:08:00
2:16 PM,37.4,35.6,93,29.76,1.0,NNE,12.7,-,0.01,Rain,Light Rain,20,2013-03-10 19:16:00
2:32 PM,37.4,35.6,93,29.74,2.0,NNE,12.7,-,0.01,Rain,Light Rain,30,2013-03-10 19:32:00
2:53 PM,36.0,35.1,97,29.76,2.0,NE,15.0,-,0.02,Rain,Light Rain,50,2013-03-10 19:53:00
3:53 PM,36.0,35.1,97,29.75,2.0,NE,9.2,-,0.07,Rain,Light Rain,50,2013-03-10 20:53:00
4:07 PM,35.6,35.6,100,29.73,3.0,NE,8.1,-,0.01,Rain,Light Rain,40,2013-03-10 21:07:00
4:40 PM,35.6,35.6,100,29.72,2.5,NNE,10.4,-,0.09,Rain,Rain,30,2013-03-10 21:40:00
4:53 PM,36.0,35.1,97,29.75,2.5,NNE,12.7,-,0.12,Rain,Rain,20,2013-03-10 21:53:00
5:24 PM,35.6,33.8,93,29.70,2.5,NNE,15.0,-,0.05,Rain,Rain,30,2013-03-10 22:24:00
5:53 PM,36.0,34.0,93,29.72,3.0,NE,16.1,26.5,0.11,Rain,Light Rain,50,2013-03-10 22:53:00
6:49 PM,35.6,33.8,93,29.67,1.5,NE,17.3,-,0.01,Rain,Light Rain,50,2013-03-10 23:49:00
6:53 PM,36.0,34.0,93,29.69,1.5,NE,16.1,-,0.01,Rain,Light Rain,50,2013-03-10 23:53:00
7:31 PM,35.6,33.8,93,29.65,5.0,NE,19.6,-,0.03,,Light Drizzle,50,2013-03-11 00:31:00
7:53 PM,35.1,34.0,96,29.66,5.0,NE,18.4,27.6,0.04,,Light Drizzle,50,2013-03-11 00:53:00
8:13 PM,35.6,33.8,93,29.64,2.5,NE,17.3,-,0.01,,Light Drizzle,50,2013-03-11 01:13:00
8:53 PM,35.1,34.0,96,29.66,2.5,NE,11.5,20.7,0.04,Rain,Light Rain,40,2013-03-11 01:53:00
9:13 PM,35.6,33.8,93,29.64,4.0,NE,11.5,-,0.02,Rain,Light Rain,50,2013-03-11 02:13:00
9:53 PM,35.1,34.0,96,29.66,9.0,NE,10.4,-,0.04,Rain,Light Rain,50,2013-03-11 02:53:00
10:07 PM,35.6,33.8,93,29.64,2.5,NE,11.5,-,0.01,,Light Drizzle,40,2013-03-11 03:07:00
10:30 PM,35.6,33.8,93,29.64,3.0,NE,10.4,-,0.02,,Light Drizzle,40,2013-03-11 03:30:00
10:53 PM,35.1,34.0,96,29.66,2.5,NE,12.7,-,0.03,,Light Drizzle,40,2013-03-11 03:53:00
11:15 PM,35.6,33.8,93,29.63,3.0,NNE,9.2,-,0.01,,Overcast,20,2013-03-11 04:15:00
11:53 PM,34.0,33.1,96,29.65,4.0,NNE,10.4,-,0.01,,Overcast,20,2013-03-11 04:53:00
12:34 AM,33.8,33.8,100,29.63,4.0,North,8.1,-,N/A,,Overcast,10,2013-03-11 05:34:00
12:53 AM,34.0,33.1,96,29.65,2.5,North,8.1,-,N/A,,Overcast,10,2013-03-11 05:53:00